Orbital Elements at Epoch 2459000.5 (2020-May-31.0) TDB
Reference: JPL 15 (heliocentric ecliptic J2000)
Element | Value | Uncertainty (1-sigma) | Units |
e | .3879042184168787 | 4.5281e-08 | |
a | 3.080911072544557 | 2.3044e-08 | au |
q | 1.885812670937253 | 1.3623e-07 | au |
i | 21.93341813962564 | 7.5387e-06 | deg |
node | 171.200344221101 | 1.5282e-05 | deg |
peri | 312.1402155984632 | 1.8385e-05 | deg |
M | 178.3497787011024 | 1.147e-05 | deg |
tp | 2458021.940482127060 (2017-Sep-25.44048213) | 5.6375e-05 | TDB |
period | 1975.22771825049 5.41 | 2.2161e-05 6.067e-08 | d yr |
n | .1822574666574957 | 2.0449e-09 | deg/d |
Q | 4.27600947415186 | 3.1983e-08 | au |
|
| | Orbit Determination Parameters
Additional Information
|